Hourly Data Report for October 15, 2021

MIRAMICHI RCS
NEW BRUNSWICK
Current Station Operator: ECCC - MSC

47°00'34.000" N
65°27'54.000" W
33.00 m
8100989
71744
ACQ

Download Data

Hourly Data (October 2021)
Hourly Data Report for October 15, 2021
TIME
LST
Temp Definition
°C
Dew Point Definition
°C
Rel Hum Definition
%
Precip. Amount Definition
mm

Wind Dir Definition
10's deg

Wind Spd Definition
km/h
Visibility Definition
km
Stn Press Definition
kPa
Hmdx Definition


Wind Chill Definition


Weather Definition


00:00 7.3 6.6 96 0.0 26 2   101.01     LegendNANA
01:00 7.6 7.1 97 0.0 35 1   101.04     LegendNANA
02:00 6.3 5.9 98 0.0 35 1   101.02     LegendNANA
03:00 6.6 6.5 99 0.0 28 6   101.02     LegendNANA
04:00 6.1 5.9 99 0.0 26 2   101.03     LegendNANA
05:00 5.9 5.7 99 0.0   0   101.00     LegendNANA
06:00 5.2 5.1 99 0.0 26 3   100.98     LegendNANA
07:00 6.0 5.9 99 0.0 26 5   101.00     LegendNANA
08:00 7.5 7.4 99 0.0 24 5   101.03     LegendNANA
09:00 8.5 8.2 98 0.0 25 10   101.06     LegendNANA
10:00 10.1 9.4 95 0.0 25 5   101.07     LegendNANA
11:00 12.2 9.6 84 0.0 22 9   101.03     LegendNANA
12:00 14.3 9.3 72 0.0 22 9   100.97     LegendNANA
13:00 15.2 9.1 67 0.0 25 8   100.93     LegendNANA
14:00 16.3 9.0 62 0.0 22 6   100.92     LegendNANA
15:00 16.9 9.6 62 0.0 19 3   100.88     LegendNANA
16:00 17.4 8.7 57 0.0 22 8   100.88     LegendNANA
17:00 15.9 9.3 65 0.0 23 7   100.89     LegendNANA
18:00 13.1 9.2 78 0.0 21 6   100.92     LegendNANA
19:00 11.6 8.6 82 0.0 20 3   100.91     LegendNANA
20:00 10.9 8.4 84 0.0 23 4   100.90     LegendNANA
21:00 9.4 8.0 91 0.0 24 5   100.91     LegendNANA
22:00 8.1 7.0 93 0.0 26 7   100.89     LegendNANA
23:00 8.4 7.5 94 0.0 25 7   100.88     LegendNANA

Notes on Data Quality.

Legend

  • E = Estimated
  • M = Missing
  • NA = Not Available*
  • [empty] = Indicates an unobserved value
Date modified: